Regional Weather Roundup
Issued by NWS

Home | Current Version | Previous Version | Text Only | Print | Product List | Glossary Off
Versions: 1 2 3 4 5 6 7 8 9 10 11 12 13 14 15 16 17 18 19 20 21 22 23 24 25 26 27 28 29 30 31 32 33 34 35 36 37 38 39 40 41 42 43 44 45 46 47 48 49 50

887
ASUS43 KLOT 011008
RWRIL

ILLINOIS REGIONAL WEATHER ROUNDUP
NATIONAL WEATHER SERVICE CHICAGO/ROMEOVILLE IL
500 AM CDT SUN MAY 01 2016

NOTE: "FAIR" INDICATES FEW OR NO CLOUDS BELOW 12,000 FEET WITH NO
SIGNIFICANT WEATHER AND/OR OBSTRUCTIONS TO VISIBILITY.

* THESE STATIONS ARE NOT UNDER NWS QUALITY CONTROL. THEY ALSO MAY NOT
  REPORT WEATHER SUCH AS PRECIPITATION OR FOG.

ILZ001-002-007-009-015-016-024-011100-
NORTHWEST ILLINOIS

CITY           SKY/WX    TMP DP  RH WIND       PRES   REMARKS
MOLINE         CLOUDY    47  45  93 NE8       29.93R FOG
SAVANNA*       CLOUDY    46  44  94 NE9       29.94S
$$

ILZ003-004-008-010-011-017-018-011100-
NORTH CENTRAL ILLINOIS

CITY           SKY/WX    TMP DP  RH WIND       PRES   REMARKS
ROCKFORD       CLOUDY    46  44  93 NE13      29.97R
FREEPORT*      CLOUDY    44  43  97 NE13      29.97S FOG
ROCHELLE*      CLOUDY    45  45  98 NE12      29.93S
DE KALB*       CLOUDY    46  45  97 NE14      29.93S FOG
$$

ILZ005-006-012>014-019>023-011100-
NORTHEAST ILLINOIS

CITY           SKY/WX    TMP DP  RH WIND       PRES   REMARKS
CHICAGO-OHARE  CLOUDY    44  43  96 NE14      29.91F FOG
CHICAGO-MIDWAY CLOUDY    47  44  90 NE10      29.91R FOG
AURORA         CLOUDY    47  45  93 NE14      29.92R FOG
LANSING*       CLOUDY    47  47 100 NE7       29.90S FOG
JOLIET*        CLOUDY    48  48  98 NE6       29.91S FOG
WAUKEGAN       CLOUDY    42  42 100 NE13G18   29.95S FOG
DUPAGE AIRPORT CLOUDY    45  43  93 NE13      29.91S FOG
KANKAKEE*      CLOUDY    48  47  97 CALM      29.90R FOG
WHEELING       CLOUDY    43  42  97 NE13      29.94F FOG
MORRIS*        CLOUDY    47  46  97 CALM      29.91R FOG
ROMEOVILLE*    CLOUDY    46  46  99 NE9       29.91R FOG
NORTHERLY ISL    N/A     44  43  96 N14         N/A
NORTHERLY ISL    N/A     44  43  96 N14         N/A
$$

LMZ740>746-011100-
SOUTHERN LAKE MICHIGAN

STATION/POSITION SKY/WX   TEMP    WIND        PRES    VSBY  WAVE
                          AIR SEA DIR/SP/G                  HT/PER
                          (F)     (DEG/KT/KT) (MB)    (MI)  (FT/S)
SOUTHERN BUOY              41 40   40/ 14/ 16 1014.1R         2/ 4
HARRISON CRIB              44      30/ 16/ 18   N/A
BURNHAM HARBOR             44      30/  8/ 14   N/A
CALUMET HARBOR             45      10/ 11/ 16 1012.2F
BURNS HARBOR               47      40/ 10/ 12 1012.9F
MICHIGAN CITY              48      20/  8/  9   N/A
ST. JOSEPH                 49 49                N/A           1/ 4
$$

ILZ025>027-034>036-040-047-049-050-058-095>099-011100-
WEST-CENTRAL ILLINOIS

CITY           SKY/WX    TMP DP  RH WIND       PRES   REMARKS
QUINCY         FOG       50  50 100 N13       29.88R VSB 1
GALESBURG*     CLOUDY    46  46  99 N10       29.92R FOG
MACOMB*        CLOUDY    48  48 100 N9        29.92S FOG
JACKSONVILLE*  FOG       53  53  97 NE3       29.88S VSB 3/4
PITTSFIELD*    FOG       56  56 100 NE3       29.88S VSB 1/4
$$

ILZ028>032-037-038-041>044-048-051>054-059>061-011100-
CENTRAL ILLINOIS

CITY           SKY/WX    TMP DP  RH WIND       PRES   REMARKS
PONTIAC        CLOUDY    49  49 100 N9        29.91R FOG
BLOOMINGTON    FOG       49  49 100 NE12      29.89S VSB 1/2
DECATUR        CLOUDY    57  55  93 NW7       29.87S FOG
PEORIA         FOG       48  47  96 NE7       29.90R VSB 1
LACON*         CLOUDY    47  46  97 NE3       29.91R FOG
LINCOLN*       FOG       52  52 100 CALM      29.88R VSB 1
SPRINGFIELD    FOG       54  53  97 CALM      29.88R VSB 1/4
TAYLORVILLE    FOG       54  54 100 N5        29.86S VSB<1/4
$$

ILZ033-039-045-046-055>057-062-063-011100-
EAST-CENTRAL ILLINOIS

CITY           SKY/WX    TMP DP  RH WIND       PRES   REMARKS
CHAMPAIGN      FOG       49  48  97 NW7       29.86R VSB 1/4
RANTOUL*       FOG       53  53  99 N7        29.87R VSB 1/2
MATTOON        MOCLDY    56  51  84 N5        29.86S
PARIS*         MOCLDY    58  55  87 W8        29.87R
$$

ILZ079-100>102-011100-
SOUTHWEST ILLINOIS

CITY           SKY/WX    TMP DP  RH WIND       PRES   REMARKS
ALTON          CLEAR     55  54  96 CALM      29.86S
CAHOKIA*       CLEAR     56  54  93 CALM      29.86R
SPARTA*        CLEAR     57  56  97 CALM      29.88R
$$

ILZ064>066-069>071-074>076-080>082-084>086-088>090-092>094-011100-
SOUTH-CENTRAL ILLINOIS

CITY           SKY/WX    TMP DP  RH WIND       PRES   REMARKS
CARBONDALE     MOCLDY    59  56  89 SE6       29.86F
CAIRO*         CLOUDY    63  62  98 CALM      29.88F
EFFINGHAM*     CLOUDY    56  56 100 CALM      29.86F FOG
MARION         CLOUDY    61  57  88 SE9       29.89F
MT. VERNON     CLOUDY    57  54  88 S6        29.87S
CENTRALIA*     CLOUDY    60  58  92 S7        29.85R
SALEM*         CLOUDY    61  58  87 S9        29.85R
METROPOLIS*    CLOUDY    64  60  90 CALM      29.90F
$$

ILZ067-068-072-073-078-083-087-091-011100-
SOUTHEAST ILLINOIS

CITY           SKY/WX    TMP DP  RH WIND       PRES   REMARKS
LAWRENCEVILLE  CLOUDY    59  57  93 CALM        N/A
FLORA*         DRIZZLE   62  58  87 S3        29.84F
FAIRFIELD*     CLOUDY    58  58  97 CALM      29.86F
HARRISBURG*    CLOUDY    58  58  97 CALM      29.89F
ROBINSON*      MOCLDY    56  55  99 CALM      29.86S
CARMI*         CLOUDY    57  56  97 CALM      29.87F
$$

ABBREVIATIONS USED IN REMARKS
   TC - TEMPERATURE IN CELSIUS
  WCI - WIND CHILL INDEX
   HX - HEAT INDEX
  VSB - VISIBILITY
$$





USA.gov is the U.S. government's official web portal to all federal, state and local government web resources and services.